Terminal Aerodrome Forecast
Issued by NWS

Home | Current Version | Previous Version | Text Only | Print | Product List | Glossary On
Versions: 1 2 3 4 5 6 7 8 9 10 11 12 13 14 15 16 17 18 19 20 21 22 23 24 25 26 27 28 29 30 31
000
FTUS42 KTBW 200700 AAA
TAFPGD
TAF AMD
KPGD 200756Z 2008/2106 33006KT P6SM SCT015 BKN030
      TEMPO 2008/2010 6SM BR BKN015
     FM201000 34005KT P6SM FEW007 SCT010 BKN020
     FM201600 33010KT P6SM SCT025 BKN050
     FM210000 01008KT P6SM SCT050 SCT250=

USA.gov is the U.S. government's official web portal to all federal, state and local government web resources and services.